User: anonymous   Login
Location: Unspecified
(0.0000°N, 0.0000°E)
Time: 11:12:43
(UTC+00:00)
Language:

Mayak - Orbit

View from above orbital plane
View from above orbital plane
View from above satellite
View from above satellite

Ground track
Ground track

The orbit data is extracted from the following two-line orbital elements,

1 42830U 17042F   19344.17860282  .00000707  00000-0  74934-4 0  9991
2 42830  97.5483 230.5621 0013709 188.9808 171.1169 14.91996884130982
Epoch (UTC): 10 December 2019 04:17:11
Eccentricity: 0.0013709
inclination: 97.5483°
perigee height: 582 km
apogee height: 601 km
right ascension of ascending node: 230.5621°
argument of perigee: 188.9808°
revolutions per day: 14.91996884
mean anomaly at epoch: 171.1169°
orbit number at epoch: 13098

The dashed part of the orbit path shows where the satellite is in the earth's shadow,  

DLR